When you browse on this site, cookies collect data to enhance your experience and personalize the content and advertising you see.
Visit our Privacy Policy to learn more. By continuing to use the site, you agree to this use of cookies and data.
  • En España
  • Lista de países
  • Para 7 días
  • Temperatura del agua
  • Mapa Satelital
  • El tiempo en el mapa
  • Informadores
  • user-avatar
    Iniciar sesión

    Tiempo cada hora Sarh

    Hoy, 19 Julio, Viernes

    Tiempo Temperatura Precipitaciones Viento Presión Humedad
    00:00 +25°C° 0 mm 2 mps 727 mmHg 89%
    01:00 +25°C° 0 mm 1 mps 727 mmHg 90%
    02:00 +25°C° 0.1 mm 1 mps 727 mmHg 91%
    03:00 +25°C° 0.1 mm 1 mps 727 mmHg 92%
    04:00 +25°C° 0.1 mm 1 mps 727 mmHg 93%
    05:00 +25°C° 0 mm 1 mps 727 mmHg 92%
    06:00 +25°C° 0 mm 1 mps 727 mmHg 91%
    07:00 +24°C° 0 mm 0 mps 728 mmHg 89%
    08:00 +27°C° 0.6 mm 1 mps 728 mmHg 85%
    09:00 +28°C° 0.6 mm 2 mps 729 mmHg 80%
    10:00 +29°C° 0.6 mm 3 mps 729 mmHg 76%
    11:00 +29°C° 2.3 mm 2 mps 729 mmHg 75%
    12:00 +30°C° 2.3 mm 2 mps 728 mmHg 75%
    13:00 +30°C° 2.3 mm 2 mps 727 mmHg 74%
    14:00 +30°C° 1.1 mm 2 mps 727 mmHg 75%
    15:00 +30°C° 1.1 mm 2 mps 726 mmHg 76%
    16:00 +30°C° 1.1 mm 2 mps 726 mmHg 77%
    17:00 +28°C° 0.5 mm 2 mps 726 mmHg 80%
    18:00 +27°C° 0.5 mm 1 mps 727 mmHg 84%
    19:00 +26°C° 0.5 mm 1 mps 727 mmHg 88%
    20:00 +26°C° 0 mm 1 mps 728 mmHg 88%
    21:00 +26°C° 0 mm 1 mps 728 mmHg 89%
    22:00 +25°C° 0 mm 1 mps 729 mmHg 90%
    23:00 +25°C° 0 mm 1 mps 728 mmHg 90%

    Mañana, 20 Julio, Sábado

    Tiempo Temperatura Precipitaciones Viento Presión Humedad
    00:00 +25°C° 0 mm 1 mps 728 mmHg 91%
    01:00 +25°C° 0 mm 1 mps 728 mmHg 91%
    02:00 +25°C° 0 mm 1 mps 728 mmHg 92%
    03:00 +24°C° 0 mm 1 mps 727 mmHg 92%
    04:00 +24°C° 0 mm 1 mps 727 mmHg 93%
    05:00 +24°C° 0 mm 1 mps 728 mmHg 92%
    06:00 +25°C° 0 mm 1 mps 728 mmHg 91%
    07:00 +25°C° 0 mm 1 mps 728 mmHg 90%
    08:00 +26°C° 0 mm 1 mps 729 mmHg 85%
    09:00 +28°C° 0 mm 1 mps 729 mmHg 80%
    10:00 +29°C° 0 mm 1 mps 729 mmHg 74%
    11:00 +30°C° 0 mm 1 mps 729 mmHg 69%
    12:00 +31°C° 0 mm 1 mps 728 mmHg 63%
    13:00 +34°C° 0 mm 2 mps 728 mmHg 58%
    14:00 +34°C° 0 mm 2 mps 727 mmHg 59%
    15:00 +32°C° 0 mm 2 mps 726 mmHg 60%
    16:00 +32°C° 0 mm 2 mps 725 mmHg 61%
    17:00 +31°C° 0 mm 1 mps 726 mmHg 67%
    18:00 +29°C° 0 mm 1 mps 726 mmHg 72%
    19:00 +27°C° 0 mm 1 mps 726 mmHg 78%
    20:00 +27°C° 0.2 mm 1 mps 727 mmHg 79%
    21:00 +27°C° 0.2 mm 1 mps 727 mmHg 80%
    22:00 +26°C° 0.2 mm 1 mps 727 mmHg 82%
    23:00 +26°C° 0.4 mm 1 mps 727 mmHg 84%

    Pasado mañana, 21 Julio, Domingo

    Tiempo Temperatura Precipitaciones Viento Presión Humedad
    00:00 +25°C° 0.4 mm 1 mps 727 mmHg 87%
    01:00 +25°C° 0.4 mm 1 mps 727 mmHg 90%
    02:00 +25°C° 0.5 mm 1 mps 727 mmHg 91%
    03:00 +25°C° 0.5 mm 1 mps 726 mmHg 93%
    04:00 +24°C° 0.5 mm 1 mps 726 mmHg 94%
    05:00 +25°C° 0.1 mm 1 mps 727 mmHg 94%
    06:00 +25°C° 0.1 mm 1 mps 727 mmHg 93%
    07:00 +25°C° 0.1 mm 2 mps 728 mmHg 93%
    08:00 +27°C° 0.3 mm 2 mps 728 mmHg 87%
    09:00 +28°C° 0.3 mm 2 mps 728 mmHg 81%
    10:00 +30°C° 0.3 mm 2 mps 728 mmHg 75%
    11:00 +29°C° 2.4 mm 2 mps 728 mmHg 78%
    12:00 +29°C° 2.4 mm 2 mps 727 mmHg 80%
    13:00 +28°C° 2.4 mm 2 mps 727 mmHg 83%
    14:00 +29°C° 0.2 mm 2 mps 726 mmHg 80%
    15:00 +29°C° 0.2 mm 2 mps 726 mmHg 78%
    16:00 +30°C° 0.2 mm 2 mps 725 mmHg 76%
    17:00 +28°C° 0.2 mm 1 mps 726 mmHg 80%
    18:00 +27°C° 0.2 mm 1 mps 726 mmHg 84%
    19:00 +26°C° 0.2 mm 1 mps 726 mmHg 88%
    20:00 +26°C° 0 mm 1 mps 727 mmHg 90%
    21:00 +25°C° 0 mm 2 mps 727 mmHg 91%
    22:00 +25°C° 0 mm 2 mps 728 mmHg 93%
    23:00 +25°C° 0 mm 2 mps 728 mmHg 93%

    22 Julio, Lunes

    Tiempo Temperatura Precipitaciones Viento Presión Humedad
    00:00 +24°C° 0 mm 1 mps 727 mmHg 94%
    01:00 +24°C° 0 mm 1 mps 727 mmHg 94%
    02:00 +24°C° 0 mm 1 mps 727 mmHg 95%
    03:00 +24°C° 0 mm 1 mps 727 mmHg 95%
    04:00 +23°C° 0 mm 1 mps 727 mmHg 96%
    05:00 +24°C° 0 mm 1 mps 727 mmHg 95%
    06:00 +24°C° 0 mm 2 mps 728 mmHg 93%
    07:00 +25°C° 0 mm 2 mps 729 mmHg 92%
    08:00 +26°C° 0 mm 2 mps 729 mmHg 87%
    09:00 +27°C° 0 mm 2 mps 729 mmHg 82%
    10:00 +29°C° 0 mm 2 mps 730 mmHg 76%
    11:00 +29°C° 0.8 mm 2 mps 729 mmHg 76%
    12:00 +29°C° 0.8 mm 2 mps 728 mmHg 76%
    13:00 +29°C° 0.8 mm 2 mps 728 mmHg 76%
    14:00 +29°C° 0.6 mm 2 mps 727 mmHg 77%
    15:00 +29°C° 0.6 mm 2 mps 727 mmHg 78%
    16:00 +29°C° 0.6 mm 2 mps 726 mmHg 80%
    17:00 +28°C° 0.1 mm 2 mps 726 mmHg 84%
    18:00 +27°C° 0.1 mm 2 mps 726 mmHg 89%
    19:00 +26°C° 0.1 mm 1 mps 727 mmHg 93%
    20:00 +25°C° 0 mm 1 mps 727 mmHg 94%
    21:00 +25°C° 0 mm 1 mps 727 mmHg 94%
    22:00 +23°C° 0 mm 0 mps 727 mmHg 95%
    23:00 +23°C° 0.5 mm 0 mps 727 mmHg 95%

    23 Julio, Martes

    Tiempo Temperatura Precipitaciones Viento Presión Humedad
    00:00 +23°C° 0.5 mm 0 mps 727 mmHg 95%
    01:00 +22°C° 0.5 mm 0 mps 727 mmHg 95%
    02:00 +22°C° 0.1 mm 0 mps 727 mmHg 94%
    03:00 +22°C° 0.1 mm 0 mps 727 mmHg 93%
    04:00 +22°C° 0.1 mm 0 mps 727 mmHg 93%
    05:00 +24°C° 0.1 mm 1 mps 728 mmHg 93%
    06:00 +24°C° 0.1 mm 1 mps 728 mmHg 92%
    07:00 +24°C° 0.1 mm 1 mps 729 mmHg 92%
    08:00 +25°C° 0 mm 1 mps 729 mmHg 88%
    09:00 +26°C° 0 mm 1 mps 729 mmHg 84%
    10:00 +27°C° 0 mm 2 mps 729 mmHg 80%
    11:00 +29°C° 0 mm 1 mps 728 mmHg 74%
    12:00 +30°C° 0 mm 1 mps 728 mmHg 68%
    13:00 +32°C° 0 mm 1 mps 727 mmHg 62%
    14:00 +31°C° 0 mm 1 mps 727 mmHg 63%
    15:00 +31°C° 0 mm 1 mps 726 mmHg 64%
    16:00 +31°C° 0 mm 1 mps 726 mmHg 65%
    17:00 +29°C° 0 mm 1 mps 726 mmHg 70%
    18:00 +26°C° 0 mm 0 mps 726 mmHg 76%
    19:00 +24°C° 0 mm 0 mps 726 mmHg 81%
    20:00 +24°C° 0 mm 0 mps 727 mmHg 82%
    21:00 +24°C° 0 mm 0 mps 727 mmHg 82%
    22:00 +23°C° 0 mm 0 mps 727 mmHg 83%
    23:00 +25°C° 0 mm 1 mps 727 mmHg 84%

    24 Julio, Miércoles

    Tiempo Temperatura Precipitaciones Viento Presión Humedad
    00:00 +25°C° 0 mm 1 mps 727 mmHg 85%
    01:00 +25°C° 0 mm 1 mps 727 mmHg 86%
    02:00 +25°C° 0 mm 1 mps 727 mmHg 87%
    03:00 +25°C° 0 mm 1 mps 727 mmHg 89%
    04:00 +22°C° 0 mm 0 mps 727 mmHg 90%
    05:00 +23°C° 0 mm 0 mps 727 mmHg 89%
    06:00 +23°C° 0 mm 0 mps 728 mmHg 88%
    07:00 +24°C° 0 mm 0 mps 728 mmHg 88%
    08:00 +25°C° 0 mm 0 mps 728 mmHg 84%
    09:00 +26°C° 0 mm 0 mps 729 mmHg 81%
    10:00 +28°C° 0 mm 1 mps 729 mmHg 78%
    11:00 +30°C° 1.2 mm 1 mps 728 mmHg 74%
    12:00 +31°C° 1.2 mm 1 mps 728 mmHg 70%
    13:00 +32°C° 1.2 mm 1 mps 727 mmHg 66%
    14:00 +32°C° 0.2 mm 1 mps 726 mmHg 64%
    15:00 +32°C° 0.2 mm 1 mps 726 mmHg 63%
    16:00 +32°C° 0.2 mm 1 mps 725 mmHg 61%
    17:00 +30°C° 0 mm 1 mps 725 mmHg 65%
    18:00 +29°C° 0 mm 1 mps 725 mmHg 70%
    19:00 +27°C° 0 mm 1 mps 725 mmHg 74%
    20:00 +27°C° 0 mm 1 mps 726 mmHg 76%
    21:00 +25°C° 0 mm 0 mps 726 mmHg 78%
    22:00 +24°C° 0 mm 0 mps 727 mmHg 80%
    23:00 +24°C° 0 mm 0 mps 726 mmHg 82%
    Mostrar más